Regional Weather Roundup
Issued by NWS Wilmington, NC

Home | Current Version | Previous Version | Text Only | Print | Product List | Glossary On
Versions: 1 2 3 4 5 6 7 8 9 10 11 12 13 14 15 16 17 18 19 20 21 22 23 24 25 26 27
000
ASUS42 KILM 201413
RWRILM
RWRILM
REGIONAL HOURLY WEATHER ROUNDUP
NATIONAL WEATHER SERVICE WILMINGTON NC
1000 AM EDT FRI OCT 20 2017

NOTE: "FAIR" INDICATES FEW OR NO CLOUDS BELOW 12,000 FEET WITH NO
SIGNIFICANT WEATHER AND/OR OBSTRUCTIONS TO VISIBILITY.

...............WFO WILMINGTON COUNTY WARNING AREA...............

......COASTAL NC AND SC COUNTIES......

CITY           SKY/WX    TMP DP  RH WIND       PRES   REMARKS
WILMINGTON     SUNNY     68  58  70 NW3       30.27R
N MYRTLE BEACH SUNNY     69  54  58 N3        30.27R
MYRTLE BEACH   SUNNY     67  54  63 N7        30.29R

......INLAND NC AND SC COUNTIES.......

CITY           SKY/WX    TMP DP  RH WIND       PRES   REMARKS
LUMBERTON      SUNNY     64  52  64 NW5       30.28R
ELIZABETHTOWN  NOT AVBL
WHITEVILLE     SUNNY     64  52  65 CALM      30.27R
FLORENCE       SUNNY     64  48  56 CALM      30.29R
DARLINGTON     SUNNY     61  51  70 N3        30.30R
KINGSTREE      FAIR      61  54  77 CALM      30.29R
HARTSVILLE     FAIR      64  46  52 NW3       30.29S
BENNETTSVILLE  FAIR      59  52  77 CALM      30.29S
CONWAY         FAIR      64  54  68 N3        30.29R HAZE
GEORGETOWN     FAIR      68  55  64 CALM      30.29R
MARION         FAIR      63  50  63 N5        30.29S

....................REST OF NORTH CAROLINA......................

.........EASTERN NC.........

CITY           SKY/WX    TMP DP  RH WIND       PRES   REMARKS
CAPE HATTERAS  SUNNY     72  64  76 NW5       30.25R
JACKSONVILLE   SUNNY     66  57  72 CALM      30.27S
MOREHEAD CITY  SUNNY     69  60  73 N5        30.26R
KENANSVILLE    SUNNY     64  52  63 W3        30.27S
NEW BERN       SUNNY     67  55  65 W3        30.27S
ELIZABETH CITY SUNNY     66  56  70 NW7       30.25R

.........CENTRAL NC.........

CITY           SKY/WX    TMP DP  RH WIND       PRES   REMARKS
RALEIGH DURHAM MOSUNNY   61  50  67 VRB3      30.29R
ROCKY MOUNT    SUNNY     60  51  72 N7        30.27R
ROANOKE RAPIDS NOT AVBL
FAYETTEVILLE   SUNNY     66  50  56 NW7       30.27R
HOFFMAN        SUNNY     61  51  70 CALM      30.29R

.........WESTERN NC.........

CITY           SKY/WX    TMP DP  RH WIND       PRES   REMARKS
CHARLOTTE      MOSUNNY   64  50  60 N5        30.32R
GREENSBORO     MOSUNNY   65  49  56 N5        30.30R
HICKORY        NOT AVBL
BOONE          NOT AVBL
ASHEVILLE      NOT AVBL

.....................REST OF SOUTH CAROLINA.....................

.........EASTERN SC.........

CITY           SKY/WX    TMP DP  RH WIND       PRES   REMARKS
CHARLESTON     SUNNY     69  57  65 N7        30.27R
BEAUFORT MCAS  SUNNY     68  59  73 NE6       30.28R
HILTON HEAD    SUNNY     70  59  68 NE10        N/A

.........CENTRAL SC.........

CITY           SKY/WX    TMP DP  RH WIND       PRES   REMARKS
COLUMBIA       SUNNY     58  54  86 S3        30.30R
ORANGEBURG     SUNNY     61  51  70 CALM      30.29R
SUMTER SHAW    SUNNY     63  49  61 CALM      30.27R

.........WESTERN SC.........

CITY           SKY/WX    TMP DP  RH WIND       PRES   REMARKS
GREENVILLE     NOT AVBL
ROCK HILL      SUNNY     60  57  89 CALM      30.31R
ANDERSON       SUNNY     58  53  84 NW3       30.30R
CLEMSON        NOT AVBL
GREENWOOD      SUNNY     59  53  80 CALM      30.32R


...................COASTAL AND OFFSHORE REPORTS..................

................LOCAL PIERS AND NC RESERVE................


STATION/POSITION TIME  SKY/WX   TEMP    WIND        PRES    VSBY
                                AIR SEA DIR/SP/G
                 (UTC)          (F)     (DEG/KT/KT) (MB)    (MI)
JOHNY MRCER PIER 1348            67 74  330/  5/  6 1025.0R
NC RESRV MASNBRO 1245            61     260/  1     1024.0
OCEAN CREST PIER NOT AVBL
SPRINGMAID  PIER 1348                               1024.5R


................COASTAL AND OFFSHORE BUOYS................


STATION/POSITION TIME  SKY/WX   TEMP    WIND        PRES    VSBY
                                AIR SEA DIR/SP/G
                 (UTC)          (F)     (DEG/KT/KT) (MB)    (MI)
DIMNDSHOAL 41025 1350            71 81  340/  8/ 12 1023.9R
WVE H/P(F/S)=  3/ 8 SWL H/P/D(F/S/D)=  3/110/ 8

CAPE LOOKOUT     1400            68     320/  7/  9 1024.2R
ONSLOW BAY 41036 NOT AVBL
ONSLOW BAY 41064 1308            73     350/  8/ 12 1024.0R
ONSLOW BAY 41159 NOT AVBL
MASNBO INL 41110 1359               74                N/A
WVE H/P(F/S)=  3/ 9

WILM HARBR 41108 1300               74                N/A
WVE H/P(F/S)=  3/ 9

27SE WRITB 41037 1308            73 75  350/  8/ 14 1024.1R
FRYING PAN 41013 1400            73 76  360/ 10/ 14 1024.3
SUNST NRSH 41024 1308            66 73   10/  6/  8 1024.3R
CAPRS NRSH 41029 1308            66 73   30/ 12/ 17 1024.1R
EDISTO     41004 1350            75 80   40/ 10/ 14 1023.7R
WVE H/P(F/S)=  4/ 8 SWL H/P/D(F/S/D)=  3/ 90/ 8



..........OFFSHORE BUOYS BEYOND 100 NM OFFSHORE...........
.....IN A TRIANGLE---HAT TO BERMUDA TO BAHAMAS TO HAT.....


STATION/POSITION TIME  SKY/WX   TEMP    WIND        PRES    VSBY
                                AIR SEA DIR/SP/G
                 (UTC)          (F)     (DEG/KT/KT) (MB)    (MI)
150E HAT   41001 NOT AVBL
W BERMUDA  41048 1400            77 79   30/ 17/ 21 1019.6
ATLANTIC S 41049 1350            81 81  230/ 17/ 19 1019.4R
WVE H/P(F/S)=  6/ 9 SWL H/P/D(F/S/D)=  3/ 90/ 9

E BAHAMAS  41046 1400            82 82  150/ 10/ 14 1018.6
NE BAHAMAS 41047 1350            73 82   50/ 16/ 17 1018.3F
WVE H/P(F/S)=  6/ 8 SWL H/P/D(F/S/D)=  3/ 60/ 8

120E CANVRL41010 NOT AVBL

END




USA.gov is the U.S. government's official web portal to all federal, state and local government web resources and services.